Lynchburg, VA

2:10 AM EST on November 15, 2019 (GMT -0500)
Lynchburg Regional-Glenn

Weather History for KLYH - September, 2019

Change the Weather History Date:

Thursday, September 5, 2019

  Actual Average Record
Temperature  
Mean Temperature 76 °F 71 °F  
Max Temperature 82 °F 82 °F 99 °F (1954)
Min Temperature 70 °F 60 °F 42 °F (1997)
Degree Days  
Heating Degree Days 0 0  
Month to date heating degree days 0 0  
Since 1 July heating degree days 0 3  
Cooling Degree Days 11 6  
Month to date cooling degree days 62 33  
Year to date cooling degree days 1277 931  
Growing Degree Days 26 (Base 50)    
Moisture  
Dew Point 65 °F    
Average Humidity 75    
Maximum Humidity 90    
Minimum Humidity 60    
Precipitation  
Precipitation 0.00 in 0.13 in 5.14 in (1935)
Month to date precipitation T 0.65  
Year to date precipitation 27.58 28.58  
Snow  
Snow 0.00 in - - ()
Month to date snowfall 0.0  
Since 1 July snowfall 0.0  
Since 1 September snowfall 0.0  
Snow Depth 0.00 in    
Sea Level Pressure  
Sea Level Pressure 29.96 in    
Wind  
Wind Speed 12 mph (NNE)    
Max Wind Speed 20 mph    
Max Gust Speed 28 mph    
Visibility 10 miles    
Events      
T = Trace of Precipitation, MM = Missing Value Source: NWS Daily Summary

Daily Weather History Graph

Daily Weather History Graph

Search for Another Location

Airport or City:

Astronomy

Sep. 05, 2019 Rise Set
Actual Time 6:50 AM EDT 7:40 PM EDT
Civil Twilight 6:23 AM EDT 8:06 PM EDT
Nautical Twilight 5:52 AM EDT 8:37 PM EDT
Astronomical Twilight 5:20 AM EDT 9:10 PM EDT
Moon 1:46 PM EDT (9/5) No Moon Set
Length of Visible Light 13h 42m
Length of Day
12h 49m
Waxing Crescent, 45% of the Moon is Illuminated
Sep 5
Waxing Crescent
Sep 5
First Quarter
Sep 14
Full
Sep 21
Last Quarter
Sep 28
New

Hourly Weather History & Observations

Time (EDT) Temp. Heat Index Dew Point Humidity Pressure Visibility Wind Dir Wind Speed Gust Speed Precip Events Conditions
12:54 AM 72.0 °F - 68.0 °F 87% 29.96 in 10.0 mi Calm Calm - N/A   Clear
1:54 AM 71.1 °F - 68.0 °F 90% 29.97 in 10.0 mi Calm Calm - N/A   Clear
2:54 AM 71.1 °F - 68.0 °F 90% 29.96 in 10.0 mi Calm Calm - N/A   Partly Cloudy
3:54 AM 75.9 °F - 69.1 °F 79% 29.96 in 10.0 mi North 8.1 mph - N/A   Mostly Cloudy
4:54 AM 75.0 °F - 66.0 °F 73% 29.96 in 10.0 mi NE 10.4 mph - N/A   Mostly Cloudy
5:54 AM 73.9 °F - 66.0 °F 76% 29.96 in 10.0 mi NNE 8.1 mph - N/A   Clear
6:54 AM 73.0 °F - 64.0 °F 73% 29.97 in 10.0 mi NNE 8.1 mph - N/A   Mostly Cloudy
7:03 AM 73.0 °F - 64.0 °F 73% 30.01 in 10.0 mi NNE 9.2 mph - N/A   Mostly Cloudy
7:29 AM 73.0 °F - 63.0 °F 71% 30.02 in 10.0 mi NE 8.1 mph - N/A   Scattered Clouds
7:54 AM 73.0 °F - 63.0 °F 71% 30.00 in 10.0 mi NE 9.2 mph - N/A   Overcast
8:54 AM 73.9 °F - 61.0 °F 64% 29.99 in 10.0 mi NE 13.8 mph 23.0 mph N/A   Mostly Cloudy
9:54 AM 73.9 °F - 61.0 °F 64% 30.00 in 10.0 mi NNE 18.4 mph 27.6 mph N/A   Scattered Clouds
10:54 AM 75.9 °F - 62.1 °F 62% 29.99 in 10.0 mi NNE 13.8 mph - N/A   Clear
11:54 AM 77.0 °F - 63.0 °F 62% 29.98 in 10.0 mi NE 15.0 mph - N/A   Clear
12:54 PM 78.1 °F - 64.9 °F 64% 29.98 in 10.0 mi NE 10.4 mph - N/A   Partly Cloudy
1:14 PM 79.0 °F - 64.9 °F 62% 30.01 in 10.0 mi NE 11.5 mph - N/A   Mostly Cloudy
1:54 PM 79.0 °F - 64.9 °F 62% 29.97 in 10.0 mi NNE 13.8 mph - N/A   Scattered Clouds
2:54 PM 80.1 °F 82.1 °F 66.0 °F 62% 29.95 in 10.0 mi NNE 12.7 mph - N/A   Clear
3:54 PM 81.0 °F 83.3 °F 66.9 °F 62% 29.91 in 10.0 mi NE 16.1 mph 23.0 mph N/A   Scattered Clouds
4:50 PM 78.8 °F - 66.2 °F 65% 29.96 in 10.0 mi NE 10.4 mph 23.0 mph N/A   Mostly Cloudy
4:54 PM 79.0 °F - 66.0 °F 64% 29.93 in 10.0 mi NE 17.3 mph 25.3 mph N/A   Mostly Cloudy
5:54 PM 77.0 °F - 66.0 °F 69% 29.92 in 10.0 mi NE 12.7 mph - N/A   Overcast
6:54 PM 73.9 °F - 66.0 °F 76% 29.91 in 10.0 mi NNE 13.8 mph 24.2 mph N/A   Partly Cloudy
7:16 PM 73.9 °F - 66.0 °F 76% 29.94 in 10.0 mi NNE 12.7 mph 20.7 mph N/A   Mostly Cloudy
7:54 PM 73.0 °F - 64.9 °F 76% 29.91 in 10.0 mi NE 17.3 mph 23.0 mph N/A   Overcast
9:54 PM 72.0 °F - 64.0 °F 76% 29.91 in 10.0 mi NNE 16.1 mph 23.0 mph N/A   Overcast
10:54 PM 72.0 °F - 64.0 °F 76% 29.90 in 10.0 mi NNE 15.0 mph 23.0 mph N/A   Overcast
11:54 PM 71.1 °F - 63.0 °F 75% 29.89 in 10.0 mi NNE 12.7 mph 20.7 mph N/A   Overcast